Notices

What's New in latest Release from April 7th, 2021:

- Updated Glossary, including Speed of Maximum Gust, and Total Hourly Precipitation

- Updated national and regional climate services offices contacts and prices information

- Addition of station inventory lists for 1981-2010, 1971-2000, and 1961-1990 Normals.

If you haven't already, please take our survey and provide feedback about our website: https://eccc.sondage-survey.ca/f/LanguageSelection.aspx?s=442ca660-fcf1-47c0-95a9-59707d6fd709

Hourly Data Report for September 16, 2017

TORONTO CITY
ONTARIO

43°40'00.000" N
79°24'00.000" W
112.50 m
6158355
71508
XTO

Download Data

Hourly Data (September 2017)
Hourly Data Report for September 16, 2017
TIME
LST
Temp Definition
°C
Dew Point Definition
°C
Rel Hum Definition
%
Precip. Amount Definition
mm

Wind Dir Definition
10's deg

Wind Spd Definition
km/h
Visibility Definition
km
Stn Press Definition
kPa
Hmdx Definition


Wind Chill Definition


Weather Definition


00:00 19.5 16.0 80 0.0 LegendMM LegendMM   100.71     LegendNANA
01:00 19.0 15.9 82 0.0 LegendMM LegendMM   100.73     LegendNANA
02:00 18.9 15.1 79 0.0 LegendMM LegendMM   100.75     LegendNANA
03:00 19.0 15.6 81 0.0 LegendMM LegendMM   100.74     LegendNANA
04:00 17.8 14.9 83 0.0 LegendMM LegendMM   100.77     LegendNANA
05:00 17.3 15.0 87 0.0 LegendMM LegendMM   100.79     LegendNANA
06:00 17.1 14.9 87 0.0 LegendMM LegendMM   100.82     LegendNANA
07:00 17.7 15.3 86 0.0 LegendMM LegendMM   100.85     LegendNANA
08:00 20.2 15.4 74 0.0 LegendMM LegendMM   100.90     LegendNANA
09:00 21.9 15.4 67 0.0 LegendMM LegendMM   100.93 26   LegendNANA
10:00 23.7 14.8 57 0.0 LegendMM LegendMM   100.93 28   LegendNANA
11:00 24.3 13.5 51 0.0 LegendMM LegendMM   100.91 27   LegendNANA
12:00 25.4 13.0 46 0.0 LegendMM LegendMM   100.89 28   LegendNANA
13:00 26.0 12.9 44 0.0 LegendMM LegendMM   100.86 29   LegendNANA
14:00 25.2 11.2 41 0.0 LegendMM LegendMM   100.82 27   LegendNANA
15:00 25.8 11.6 41 0.0 LegendMM LegendMM   100.79 28   LegendNANA
16:00 25.1 11.9 44 0.0 LegendMM LegendMM   100.75 27   LegendNANA
17:00 24.4 12.8 48 0.0 LegendMM LegendMM   100.72 27   LegendNANA
18:00 23.5 12.9 51 0.0 LegendMM LegendMM   100.70 26   LegendNANA
19:00 22.5 13.9 58 0.0 LegendMM LegendMM   100.69 26   LegendNANA
20:00 21.4 15.8 70 0.0 LegendMM LegendMM   100.74 26   LegendNANA
21:00 21.0 15.3 70 0.0 LegendMM LegendMM   100.75 25   LegendNANA
22:00 20.5 15.0 71 0.0 LegendMM LegendMM   100.73     LegendNANA
23:00 19.3 15.5 79 0.0 LegendMM LegendMM   100.75     LegendNANA

Notes on Data Quality.

Legend

  • E = Estimated
  • M = Missing
  • NA = Not Available*
  • [empty] = Indicates an unobserved value
Date modified: